Regional Weather Roundup
Issued by NWS

Home | Current Version | Previous Version | Graphics & Text | Print | Product List | Glossary On
Versions: 1 2 3 4 5 6 7 8 9 10 11 12 13 14 15 16 17 18 19 20 21 22 23 24 25 26 27 28 29 30 31 32 33 34 35 36 37 38 39 40 41 42 43 44 45 46 47 48 49 50
428
ASUS43 KDMX 051808
RWRIA

WEATHER ROUNDUP FOR IOWA
NATIONAL WEATHER SERVICE DES MOINES IA
100 PM CDT THU MAY 05 2016

NOTE: "FAIR" INDICATES FEW OR NO CLOUDS BELOW 12,000 FEET WITH NO
SIGNIFICANT WEATHER AND/OR OBSTRUCTIONS TO VISIBILITY.

* - THESE STATIONS ARE NOT NWS STATIONS...THUS NOT UNDER NWS
QUALITY CONTROL.  THEY ALSO DO NOT REPORT WEATHER SUCH
AS PRECIPITATION OR FOG.

IAZ001>003-012>014-020>022-031>034-043>046-051900-
   NORTHWEST IOWA

CITY           SKY/WX    TMP DP  RH WIND       PRES   REMARKS
CARROLL *      SUNNY     68  32  26 CALM      30.08F
CHEROKEE *     SUNNY     69  38  32 SE5       30.06F
DENISON *      SUNNY     70  36  28 VRB5      30.06F
LE MARS *      SUNNY     72  37  28 SW7       30.06F
ORANGE CITY *  SUNNY     72  37  28 S7        30.05F
SHELDON *      SUNNY     72  34  25 CALM      30.04F
SIOUX CITY     SUNNY     74  44  34 S8        30.06F
6HR MIN TEMP:  40; 6HR MAX TEMP:  75;

SPENCER        SUNNY     70  35  27 W5        30.06F
6HR MIN TEMP:  37; 6HR MAX TEMP:  70;

STORM LAKE *     N/A     70  32  24 VRB6      30.08F
$$

IAZ055>058-069>071-079>083-090>094-051900-
   SOUTHWEST IOWA

CITY           SKY/WX    TMP DP  RH WIND       PRES   REMARKS
ATLANTIC *     SUNNY     68  32  26 CALM      30.09F
AUDUBON *      SUNNY     70  27  19 CALM      30.10S
CLARINDA *       N/A     70  34  26 MISG      30.11F
COUNCIL BLFS * SUNNY     70  36  28 CALM      30.08F
CRESTON *      SUNNY     66  34  30 CALM      30.12S
HARLAN  *      SUNNY     70  34  26 VRB3      30.12F
LAMONI         SUNNY     66  36  32 VRB5      30.10S
6HR MIN TEMP:  45; 6HR MAX TEMP:  66;

RED OAK *      SUNNY     68  34  28 CALM      30.09F
SHENANDOAH *   SUNNY     70  37  30 S5        30.10F HAZE
$$

IAZ047>049-059>061-072>074-084-051900-
   CENTRAL IOWA

CITY           SKY/WX    TMP DP  RH WIND       PRES   REMARKS
AMES           MOSUNNY   65  34  31 VRB3      30.08F
6HR MIN TEMP:  40; 6HR MAX TEMP:  65;

ANKENY *       MOSUNNY   64  30  27 CALM      30.09F
BOONE *        SUNNY     64  30  27 E5        30.08S
CHARITON *     MOSUNNY   63  34  34 NE5       30.09F
DES MOINES     MOSUNNY   64  30  27 SE6       30.10S
6HR MIN TEMP:  46; 6HR MAX TEMP:  65;

GRINNELL*      PTSUNNY   61  32  33 N3        30.08F
KNOXVILLE *    MOSUNNY   61  32  33 NE6       30.08F
MARSHALLTOWN   MOSUNNY   63  30  28 VRB3      30.07F
6HR MIN TEMP:  40; 6HR MAX TEMP:  64;

NEWTON *       MOSUNNY   63  32  31 NE7       30.08F
PELLA *        CLOUDY    64  28  25 NW3       30.09F
PERRY *          N/A     66  30  26 E5        30.09F
$$

IAZ004>006-015-016-023>025-035-036-051900-
   NORTH CENTRAL IOWA

CITY           SKY/WX    TMP DP  RH WIND       PRES   REMARKS
ALGONA *       SUNNY     68  30  24 VRB6      30.07F
CLARION *      SUNNY     68  30  24 VRB7G14   30.07F
ESTHERVILLE    SUNNY     68  34  28 VRB3      30.05F
6HR MIN TEMP:  36; 6HR MAX TEMP:  68;

FORT DODGE *   SUNNY     66  37  34 NW3       30.08F
MASON CITY     SUNNY     66  30  26 SW7       30.07F
6HR MIN TEMP:  38; 6HR MAX TEMP:  66;

FOREST CITY *  SUNNY     64  32  29 CALM      30.06F
WEBSTER CITY * SUNNY     66  30  26 VRB7      30.06F
IOWA FALLS *     N/A     64  32  29 CALM      30.08F
$$

IAZ007>011-017>019-026>030-037>042-050>054-066-051900-
   NORTHEAST IOWA

CITY           SKY/WX    TMP DP  RH WIND       PRES   REMARKS
CEDAR RAPIDS   SUNNY     62  40  44 VRB3      30.06F
6HR MIN TEMP:  39; 6HR MAX TEMP:  62;

CHARLES CITY * SUNNY     63  30  29 CALM      30.07F
CLINTON *      SUNNY     59  40  49 VRB6      30.05F
DECORAH *      SUNNY     61  32  33 NW9       30.04F
DUBUQUE        SUNNY     60  42  51 N8        30.06F
6HR MIN TEMP:  42; 6HR MAX TEMP:  60;

MONTICELLO *   SUNNY     61  39  44 VRB6G12   30.05F
OELWEIN *      SUNNY     63  34  34 N8        30.06F
WATERLOO       SUNNY     61  34  36 NW3       30.07F
6HR MIN TEMP:  38; 6HR MAX TEMP:  62;

$$

IAZ064-065-067-068-078-051900-
   EAST CENTRAL IOWA

CITY           SKY/WX    TMP DP  RH WIND       PRES   REMARKS
DAVENPORT      SUNNY     60  36  40 NW6       30.06F
6HR MIN TEMP:  40; 6HR MAX TEMP:  60;

IOWA CITY      SUNNY     61  39  44 NW6       30.08F
6HR MIN TEMP:  46; 6HR MAX TEMP:  62;

MT. PLEASANT * SUNNY     63  38  39 N12G17    30.07F
MUSCATINE *    SUNNY     63  39  42 VRB7G20   30.07F
QUAD CITIES    SUNNY     62  39  42 NE9       30.05F
6HR MIN TEMP:  45; 6HR MAX TEMP:  62;

$$

IAZ062-063-075>077-085>089-095>099-051900-
   SOUTHEAST IOWA

CITY           SKY/WX    TMP DP  RH WIND       PRES   REMARKS
BURLINGTON     SUNNY     60  40  47 VRB3      30.05F
6HR MIN TEMP:  48; 6HR MAX TEMP:  62;

FAIRFIELD *    SUNNY     61  37  41 VRB7G13   30.07F
FORT MADISON * SUNNY     61  39  44 N9        30.07F
KEOKUK *       SUNNY     61  39  44 NE6G17    30.06F
OSKALOOSA *    PTSUNNY   62  32  31 N7        30.08F
OTTUMWA        PTSUNNY   62  34  35 N5        30.07F
6HR MIN TEMP:  38; 6HR MAX TEMP:  63;

WASHINGTON *   SUNNY     61  37  41 N8        30.08F
$$

ABBREVIATIONS USED IN REMARKS
   TC - TEMPERATURES IN CELSIUS
  WCI - WIND CHILL INDEX
   HX - HEAT INDEX
  VSB - VISIBILITY
$$





USA.gov is the U.S. government's official web portal to all federal, state and local government web resources and services.